| time (UTC) | temp F | wind direction | speed MPH | gust MPH | rain 1hr in | rain 24hr in | rain mn in | humidity % | barometer mb |
| 20260504045221 | 58 | 185 | 0.0 | 3.0 | 0.00 | 0.00 | 0.00 | 70 | 999.9 |
| 20260504044219 | 58 | 178 | 0.0 | 3.0 | 0.00 | 0.00 | 0.00 | 70 | 1000.0 |
| 20260504043217 | 57 | 177 | 1.0 | 5.0 | 0.00 | 0.00 | 0.00 | 70 | 1000.1 |
| 20260504042212 | 57 | 196 | 0.0 | 0.0 | 0.00 | 0.00 | 0.00 | 71 | 1000.1 |
| 20260504041209 | 57 | 196 | 0.0 | 0.0 | 0.00 | 0.00 | 0.00 | 70 | 1000.1 |
| 20260504040205 | 58 | 196 | 0.0 | 0.0 | 0.00 | 0.00 | 0.00 | 69 | 1000.1 |
| 20260504035205 | 58 | 0 | 0.0 | 0.0 | 0.00 | 0.00 | 0.00 | 69 | 1000.1 |
| 20260504034205 | 58 | 194 | 0.0 | 1.0 | 0.00 | 0.00 | 0.00 | 68 | 1000.2 |
| 20260504033140 | 58 | 194 | 0.0 | 5.0 | 0.00 | 0.00 | 0.00 | 69 | 1000.2 |
| 20260504032132 | 58 | 184 | 0.0 | 1.0 | 0.00 | 0.00 | 0.00 | 69 | 1000.2 |
| 20260504031121 | 58 | 0 | 0.0 | 1.0 | 0.00 | 0.00 | 0.00 | 69 | 1000.3 |
| 20260504030109 | 58 | 184 | 0.0 | 2.0 | 0.00 | 0.00 | 0.00 | 68 | 1000.4 |
| 20260504025110 | 58 | 184 | 0.0 | 1.0 | 0.00 | 0.00 | 0.00 | 67 | 1000.4 |
| 20260504024048 | 59 | 184 | 0.0 | 1.0 | 0.00 | 0.00 | 0.00 | 66 | 1000.4 |
| 20260504023535 | 60 | 184 | 0.0 | 1.0 | 0.00 | 0.00 | 0.00 | 65 | 1000.3 |
| 20260504022046 | 60 | 184 | 0.0 | 1.0 | 0.00 | 0.00 | 0.00 | 65 | 1000.3 |
| 20260504021036 | 59 | 184 | 0.0 | 4.0 | 0.00 | 0.00 | 0.00 | 66 | 1000.3 |
| 20260504020014 | 58 | 187 | 0.0 | 1.0 | 0.00 | 0.00 | 0.00 | 67 | 1000.1 |
| 20260504014952 | 58 | 187 | 0.0 | 0.0 | 0.00 | 0.00 | 0.00 | 67 | 1000.1 |
| 20260504014419 | 59 | 0 | 0.0 | 0.0 | 0.00 | 0.00 | 0.00 | 66 | 1000.1 |
| 20260504012917 | 60 | 0 | 0.0 | 0.0 | 0.00 | 0.00 | 0.00 | 64 | 1000.0 |
| 20260504012345 | 61 | 187 | 0.0 | 0.0 | 0.00 | 0.00 | 0.00 | 61 | 1000.1 |
| 20260504010900 | 63 | 187 | 0.0 | 0.0 | 0.00 | 0.00 | 0.00 | 59 | 999.9 |
| 20260504005858 | 64 | 188 | 0.0 | 0.0 | 0.00 | 0.00 | 0.00 | 57 | 999.7 |
| 20260504005344 | 65 | 188 | 0.0 | 2.0 | 0.00 | 0.00 | 0.00 | 56 | 999.8 |
| 20260504003835 | 66 | 0 | 0.0 | 3.0 | 0.00 | 0.00 | 0.00 | 54 | 999.8 |
| 20260504002827 | 67 | 187 | 0.0 | 2.0 | 0.00 | 0.00 | 0.00 | 53 | 1000.1 |
| 20260504001824 | 67 | 175 | 1.0 | 7.0 | 0.00 | 0.00 | 0.00 | 51 | 1000.1 |
| 20260504000806 | 67 | 204 | 1.0 | 5.0 | 0.00 | 0.00 | 0.00 | 51 | 999.9 |
| 20260503235754 | 68 | 222 | 1.0 | 4.0 | 0.00 | 0.00 | 0.00 | 50 | 1000.0 |
| 20260503234742 | 68 | 199 | 1.0 | 3.0 | 0.00 | 0.00 | 0.00 | 51 | 1000.0 |
| 20260503234202 | 68 | 221 | 1.0 | 6.0 | 0.00 | 0.00 | 0.00 | 50 | 1000.0 |
| 20260503232722 | 68 | 204 | 1.0 | 6.0 | 0.00 | 0.00 | 0.00 | 51 | 1000.3 |
| 20260503232204 | 68 | 239 | 2.0 | 10.0 | 0.00 | 0.00 | 0.00 | 50 | 1000.4 |
| 20260503230723 | 68 | 247 | 1.0 | 8.0 | 0.00 | 0.00 | 0.00 | 49 | 1000.4 |
| 20260503225722 | 68 | 244 | 2.0 | 5.0 | 0.00 | 0.00 | 0.00 | 48 | 1000.5 |
| 20260503225216 | 68 | 178 | 2.0 | 5.0 | 0.00 | 0.00 | 0.00 | 50 | 1000.5 |
| 20260503223721 | 69 | 205 | 3.0 | 9.0 | 0.00 | 0.00 | 0.00 | 47 | 1000.6 |
| 20260503222723 | 69 | 221 | 2.0 | 7.0 | 0.00 | 0.00 | 0.00 | 49 | 1000.5 |
| 20260503221720 | 69 | 193 | 2.0 | 11.0 | 0.00 | 0.00 | 0.00 | 48 | 1000.6 |
| 20260503220720 | 68 | 193 | 2.0 | 9.0 | 0.00 | 0.00 | 0.00 | 49 | 1000.5 |
| 20260503215708 | 68 | 248 | 3.0 | 12.0 | 0.00 | 0.00 | 0.00 | 49 | 1000.8 |
| 20260503214656 | 67 | 196 | 3.0 | 13.0 | 0.00 | 0.00 | 0.00 | 49 | 1001.0 |
| 20260503213645 | 67 | 238 | 4.0 | 11.0 | 0.00 | 0.00 | 0.00 | 49 | 1001.0 |
| 20260503213122 | 67 | 259 | 4.0 | 14.0 | 0.00 | 0.00 | 0.00 | 49 | 1001.1 |
| 20260503211640 | 67 | 236 | 4.0 | 11.0 | 0.00 | 0.00 | 0.00 | 49 | 1001.4 |
| 20260503210640 | 67 | 256 | 4.0 | 14.0 | 0.00 | 0.00 | 0.00 | 50 | 1001.4 |
| 20260503205639 | 66 | 250 | 4.0 | 13.0 | 0.00 | 0.00 | 0.00 | 50 | 1001.8 |
| 20260503204638 | 66 | 236 | 4.0 | 13.0 | 0.00 | 0.00 | 0.00 | 50 | 1002.2 |
| 20260503203639 | 66 | 150 | 4.0 | 11.0 | 0.00 | 0.00 | 0.00 | 49 | 1002.2 |
| 20260503202635 | 66 | 215 | 4.0 | 10.0 | 0.00 | 0.00 | 0.00 | 48 | 1002.3 |
| 20260503201638 | 66 | 229 | 4.0 | 12.0 | 0.00 | 0.00 | 0.00 | 49 | 1002.6 |
| 20260503200634 | 65 | 281 | 4.0 | 17.0 | 0.00 | 0.00 | 0.00 | 52 | 1002.6 |
| 20260503200548 | 64 | 182 | 4.0 | 10.0 | 0.00 | 0.00 | 0.00 | 55 | 1003.1 |
| 20260503194632 | 63 | 288 | 5.0 | 13.0 | 0.00 | 0.00 | 0.00 | 57 | 1003.5 |
| 20260503193629 | 64 | 268 | 4.0 | 14.0 | 0.00 | 0.00 | 0.00 | 56 | 1003.5 |
| 20260503192627 | 64 | 196 | 3.0 | 12.0 | 0.00 | 0.00 | 0.00 | 56 | 1003.5 |
| 20260503192115 | 63 | 211 | 3.0 | 12.0 | 0.00 | 0.00 | 0.00 | 56 | 1003.5 |
| 20260503190627 | 63 | 307 | 4.0 | 14.0 | 0.00 | 0.00 | 0.00 | 55 | 1003.5 |
| 20260503185626 | 63 | 57 | 4.0 | 13.0 | 0.00 | 0.00 | 0.00 | 57 | 1003.5 |
| 20260503184626 | 62 | 184 | 3.0 | 12.0 | 0.00 | 0.00 | 0.00 | 54 | 1003.6 |
| 20260503183625 | 62 | 192 | 5.0 | 16.0 | 0.00 | 0.00 | 0.00 | 54 | 1003.5 |
| 20260503182624 | 61 | 187 | 4.0 | 13.0 | 0.00 | 0.00 | 0.00 | 58 | 1003.7 |
| 20260503181623 | 61 | 139 | 4.0 | 13.0 | 0.00 | 0.00 | 0.00 | 58 | 1004.2 |
| 20260503180628 | 61 | 211 | 6.0 | 16.0 | 0.00 | 0.00 | 0.00 | 56 | 1004.1 |
| 20260503175615 | 61 | 191 | 4.0 | 12.0 | 0.00 | 0.00 | 0.00 | 60 | 1004.4 |
| 20260503175050 | 60 | 86 | 5.0 | 16.0 | 0.00 | 0.00 | 0.00 | 60 | 1004.7 |
| 20260503173608 | 60 | 113 | 5.0 | 16.0 | 0.00 | 0.00 | 0.00 | 60 | 1004.7 |
| 20260503172607 | 59 | 166 | 4.0 | 12.0 | 0.00 | 0.00 | 0.00 | 65 | 1005.1 |
| 20260503172042 | 58 | 271 | 5.0 | 18.0 | 0.00 | 0.00 | 0.00 | 65 | 1005.7 |
| 20260503170607 | 58 | 211 | 5.0 | 17.0 | 0.00 | 0.00 | 0.00 | 68 | 1005.6 |
| 20260503150551 | 57 | 261 | 4.0 | 12.0 | 0.00 | 0.00 | 0.00 | 61 | 1007.3 |
| 20260503131001 | 52 | 0 | 2.0 | 12.0 | 0.00 | 0.00 | 0.00 | 61 | 1008.1 |
| 20260503110502 | 47 | 0 | 1.0 | 7.0 | 0.00 | 0.00 | 0.00 | 65 | 1007.6 |
| 20260503090345 | 47 | 0 | 1.0 | 4.0 | 0.00 | 0.00 | 0.00 | 59 | 1008.3 |
| 20260503081315 | 49 | 0 | 1.0 | 5.0 | 0.00 | 0.00 | 0.00 | 55 | 1008.6 |
| 20260503080319 | 49 | 0 | 1.0 | 5.0 | 0.00 | 0.00 | 0.00 | 55 | 1008.6 |
| 20260503072306 | 48 | 0 | 1.0 | 4.0 | 0.00 | 0.00 | 0.00 | 56 | 1008.8 |
| 20260503071253 | 48 | 0 | 1.0 | 6.0 | 0.00 | 0.00 | 0.00 | 57 | 1008.9 |
| 20260503070247 | 48 | 0 | 0.0 | 6.0 | 0.00 | 0.00 | 0.00 | 57 | 1008.9 |
| 20260503054201 | 48 | 0 | 1.0 | 4.0 | 0.00 | 0.00 | 0.00 | 57 | 1009.5 |
| 20260503053159 | 48 | 0 | 1.0 | 4.0 | 0.00 | 0.00 | 0.00 | 57 | 1009.7 |
| 20260503052155 | 48 | 0 | 1.0 | 6.0 | 0.00 | 0.00 | 0.00 | 57 | 1009.7 |
| 20260503051153 | 48 | 0 | 1.0 | 5.0 | 0.00 | 0.00 | 0.00 | 57 | 1009.9 |
| 20260503050631 | 48 | 0 | 0.0 | 5.0 | 0.00 | 0.00 | 0.00 | 57 | 1009.8 |